Total_Precipitation_Accumulation
0.00 0.00 0.01 0.00 0.00 0.00 0.01 0.02 0.02 0.02 0.05 0.06 0.09 0.17 0.36 0.52 0.58 0.62 0.80 1.02 1.24 1.37 1.44 1.54 1.69 1.85 1.93 1.97 2.10 2.20 2.48 2.87 3.07 3.05 3.03 2.98 2.66 2.37 2.05 1.82 1.81 1.90 1.93 2.08
0.01 0.01 0.01 0.01 0.00 0.01 0.03 0.04 0.03 0.03 0.06 0.11 0.18 0.27 0.44 0.68 0.73 0.67 0.67 0.78 0.96 1.33 1.56 1.71 1.86 1.96 1.92 2.04 2.27 2.54 2.83 3.14 3.03 3.17 3.37 3.30 3.06 2.48 2.11 1.92 1.89 1.95 1.99 2.04
0.02 0.02 0.01 0.01 0.01 0.02 0.03 0.04 0.03 0.05 0.09 0.09 0.16 0.36 0.52 0.75 0.85 0.74 0.70 0.72 0.72 0.98 1.29 1.42 1.51 1.62 1.86 2.20 2.56 2.81 2.99 3.05 2.99 3.15 3.27 2.99 2.75 2.32 2.19 2.17 2.06 2.01 2.11 2.16
0.01 0.01 0.01 0.03 0.03 0.03 0.03 0.03 0.03 0.04 0.07 0.10 0.16 0.45 0.79 1.03 0.96 0.78 0.77 0.82 0.98 1.11 1.14 1.24 1.35 1.58 1.94 2.28 2.64 2.96 2.95 2.92 2.88 2.99 3.05 2.88 2.60 2.32 2.22 2.24 2.03 1.89 1.87 1.93
0.04 0.02 0.02 0.02 0.03 0.03 0.04 0.03 0.03 0.05 0.06 0.08 0.18 0.43 0.87 1.09 0.96 0.77 0.78 0.94 1.12 1.11 1.05 1.17 1.30 1.51 1.71 2.02 2.32 2.59 2.78 2.82 2.75 2.72 2.68 2.64 2.44 2.19 2.06 2.00 1.88 1.83 1.86 1.79
0.07 0.05 0.04 0.03 0.03 0.03 0.04 0.04 0.05 0.08 0.10 0.17 0.22 0.36 0.73 0.99 0.91 0.74 0.75 0.88 1.03 1.19 1.21 1.24 1.44 1.56 1.64 1.83 2.10 2.27 2.40 2.44 2.40 2.32 2.28 2.29 2.22 2.17 2.02 1.87 1.88 1.92 1.85 1.73
0.14 0.14 0.09 0.07 0.05 0.04 0.04 0.05 0.13 0.27 0.44 0.45 0.36 0.48 0.82 0.80 0.69 0.63 0.67 0.84 1.06 1.27 1.29 1.38 1.54 1.63 1.69 1.72 1.77 1.83 1.87 1.92 1.86 1.78 1.74 1.77 1.79 1.81 1.74 1.72 1.78 1.83 1.76 1.67
0.22 0.19 0.14 0.12 0.10 0.07 0.07 0.10 0.24 0.25 0.27 0.35 0.44 0.68 0.81 0.67 0.58 0.58 0.61 0.74 0.98 1.10 1.16 1.27 1.35 1.27 1.21 1.23 1.28 1.31 1.32 1.33 1.30 1.33 1.36 1.39 1.49 1.53 1.52 1.63 1.65 1.69 1.67 1.62
0.11 0.11 0.11 0.12 0.12 0.12 0.16 0.20 0.18 0.27 0.23 0.31 0.46 0.66 0.68 0.58 0.68 0.72 0.75 0.80 0.84 0.84 0.81 0.84 0.86 0.89 0.95 0.97 0.97 0.97 1.01 1.02 0.97 0.96 1.06 1.13 1.20 1.27 1.29 1.39 1.42 1.41 1.40 1.34
0.04 0.06 0.08 0.07 0.08 0.11 0.17 0.27 0.37 0.52 0.52 0.46 0.43 0.68 0.89 0.91 0.93 0.89 1.00 1.19 1.03 0.74 0.62 0.59 0.59 0.63 0.67 0.70 0.75 0.79 0.88 0.97 0.95 0.88 0.88 0.90 0.95 0.99 1.09 1.16 1.18 1.22 1.25 1.22
0.03 0.05 0.09 0.10 0.10 0.15 0.25 0.32 0.42 0.53 0.56 0.55 0.53 0.68 0.63 0.90 0.97 0.97 0.99 1.00 0.83 0.54 0.38 0.33 0.34 0.38 0.46 0.59 0.67 0.69 0.80 0.88 0.84 0.74 0.73 0.77 0.79 0.83 0.88 0.95 0.96 1.02 1.08 1.15
0.03 0.04 0.08 0.12 0.11 0.11 0.20 0.32 0.43 0.54 0.54 0.55 0.58 0.70 0.49 0.64 0.70 0.70 0.73 0.57 0.44 0.31 0.23 0.21 0.21 0.25 0.33 0.42 0.47 0.55 0.64 0.74 0.76 0.72 0.72 0.75 0.78 0.78 0.78 0.80 0.79 0.81 0.86 0.89
0.01 0.03 0.10 0.23 0.25 0.16 0.16 0.19 0.26 0.36 0.44 0.46 0.57 0.73 0.49 0.46 0.52 0.50 0.43 0.36 0.27 0.22 0.17 0.16 0.17 0.21 0.24 0.29 0.36 0.43 0.48 0.56 0.64 0.66 0.71 0.77 0.76 0.74 0.77 0.80 0.80 0.79 0.78 0.80
0.01 0.02 0.04 0.13 0.16 0.11 0.14 0.19 0.24 0.30 0.40 0.38 0.40 0.56 0.54 0.46 0.41 0.37 0.30 0.24 0.21 0.17 0.16 0.14 0.15 0.16 0.16 0.19 0.26 0.31 0.34 0.41 0.49 0.57 0.72 0.84 0.89 0.90 0.90 0.85 0.86 0.84 0.80 0.81
0.01 0.02 0.03 0.04 0.05 0.07 0.11 0.15 0.19 0.26 0.29 0.36 0.33 0.41 0.46 0.39 0.33 0.27 0.23 0.21 0.22 0.20 0.15 0.12 0.11 0.10 0.11 0.14 0.17 0.25 0.32 0.37 0.43 0.58 0.79 0.90 0.88 0.83 0.82 0.81 0.88 0.85 0.77 0.75
0.01 0.02 0.04 0.08 0.11 0.14 0.18 0.21 0.19 0.17 0.16 0.17 0.23 0.33 0.29 0.27 0.26 0.26 0.24 0.21 0.19 0.16 0.13 0.11 0.10 0.09 0.08 0.08 0.10 0.17 0.27 0.34 0.43 0.55 0.66 0.70 0.74 0.77 0.73 0.68 0.67 0.69 0.71 0.71
0.01 0.02 0.03 0.07 0.16 0.20 0.28 0.25 0.26 0.27 0.21 0.22 0.34 0.36 0.26 0.23 0.19 0.16 0.14 0.13 0.13 0.11 0.09 0.08 0.08 0.08 0.07 0.07 0.10 0.16 0.23 0.28 0.40 0.48 0.52 0.60 0.71 0.74 0.67 0.58 0.61 0.68 0.69 0.68
0.02 0.01 0.03 0.06 0.19 0.35 0.27 0.08 0.07 0.11 0.14 0.15 0.20 0.20 0.17 0.15 0.11 0.09 0.07 0.07 0.07 0.06 0.06 0.06 0.06 0.06 0.05 0.07 0.11 0.16 0.22 0.28 0.38 0.49 0.56 0.62 0.73 0.73 0.69 0.66 0.65 0.65 0.66 0.65
0.01 0.01 0.03 0.06 0.13 0.22 0.13 0.05 0.04 0.07 0.09 0.04 0.07 0.08 0.08 0.06 0.07 0.10 0.06 0.03 0.03 0.03 0.04 0.04 0.04 0.05 0.08 0.11 0.13 0.18 0.26 0.31 0.39 0.50 0.61 0.71 0.80 0.79 0.74 0.72 0.69 0.67 0.65 0.60
0.02 0.01 0.01 0.04 0.11 0.17 0.09 0.04 0.06 0.08 0.21 0.11 0.08 0.07 0.06 0.06 0.13 0.16 0.05 0.01 0.01 0.03 0.08 0.08 0.07 0.10 0.16 0.17 0.18 0.25 0.32 0.40 0.51 0.60 0.69 0.75 0.80 0.83 0.80 0.79 0.76 0.71 0.70 0.63
0.01 0.01 0.02 0.03 0.08 0.10 0.03 0.05 0.07 0.17 0.25 0.06 0.02 0.02 0.02 0.06 0.11 0.08 0.02 0.01 0.01 0.03 0.08 0.12 0.16 0.23 0.25 0.23 0.28 0.36 0.41 0.49 0.55 0.64 0.72 0.80 0.88 0.86 0.82 0.85 0.86 0.83 0.80 0.78
0.02 0.01 0.02 0.04 0.10 0.13 0.03 0.02 0.04 0.06 0.03 0.02 0.02 0.02 0.02 0.02 0.02 0.03 0.02 0.02 0.03 0.04 0.08 0.15 0.26 0.31 0.29 0.32 0.46 0.54 0.56 0.55 0.58 0.68 0.77 0.88 0.95 0.80 0.75 0.90 0.92 0.91 0.92 0.92
0.01 0.02 0.02 0.03 0.05 0.02 0.01 0.01 0.02 0.02 0.02 0.02 0.02 0.01 0.02 0.02 0.02 0.03 0.02 0.03 0.07 0.09 0.11 0.14 0.23 0.29 0.32 0.42 0.59 0.75 0.76 0.68 0.69 0.77 0.87 0.91 0.93 0.97 0.99 0.97 0.97 0.99 0.97 0.99
0.01 0.01 0.02 0.03 0.02 0.01 0.01 0.01 0.01 0.01 0.01 0.01 0.01 0.01 0.01 0.02 0.02 0.02 0.02 0.04 0.07 0.11 0.12 0.14 0.20 0.29 0.39 0.48 0.64 0.78 0.81 0.80 0.83 0.88 0.93 0.97 1.00 1.02 1.07 1.13 1.11 1.08 1.03 1.04
0.00 0.00 0.02 0.05 0.03 0.02 0.02 0.01 0.01 0.00 0.01 0.01 0.01 0.01 0.01 0.02 0.03 0.03 0.04 0.05 0.06 0.09 0.10 0.14 0.23 0.35 0.42 0.49 0.60 0.69 0.74 0.85 0.95 0.98 1.01 1.04 1.07 1.10 1.13 1.15 1.10 1.03 1.00 0.90
0.01 0.01 0.03 0.05 0.03 0.03 0.03 0.01 0.00 0.00 0.01 0.01 0.01 0.01 0.02 0.02 0.03 0.04 0.05 0.06 0.07 0.09 0.12 0.17 0.24 0.32 0.38 0.46 0.56 0.65 0.77 0.91 1.06 1.09 1.03 1.02 1.01 1.05 1.10 1.10 0.96 0.74 0.67 0.60